Location: Napier
(39.4830°S, 176.9170°E)
Time: 00:09:06
(UTC+13:00)

NOSS 3-2 (C) - Pass Details

Date: 24 January 2019
Orbit: 839 x 1373 km, 63.4° (Epoch: 17 February)

Event Time Altitude Azimuth Distance (km) Brightness Sun altitude
Exits shadow 23:03:16 37° 25° (NNE) 1,944 4.5 -22.7°
Maximum altitude 23:05:42 46° 65° (ENE) 1,694 4.3 -23.0°
Drops below altitude 10° 23:13:01 10° 135° (SE) 3,179 6.3 -23.8°
Sets 23:15:45 0° 140° (SE) 4,075 7.0 -24.1°
